iso_date,Year,Hour,Min,DOY,POS_DOY,Lat,Lon,BP,Ts,Ta,has_bp,has_ts,has_ta,BuoyID,Buoy_Type,Buoy_Owner,Logistics,Hemisphere
2020-09-05T18:00:00Z,2020,18,0,249.75,249.75,62.706,-52.77,-999.0,5.53,-999.0,no,yes,no,300234068342660,SVPGHI,AOML,MARIA_S._MERI,North
2020-09-05T19:02:03Z,2020,19,2,249.7931,249.7931,62.714,-52.826,-999.0,5.46,-999.0,no,yes,no,300234068342660,SVPGHI,AOML,MARIA_S._MERI,North
2020-09-05T19:59:57Z,2020,20,0,249.8333,249.8333,62.722,-52.878,-999.0,5.45,-999.0,no,yes,no,300234068342660,SVPGHI,AOML,MARIA_S._MERI,North
2020-09-05T21:00:00Z,2020,21,0,249.875,249.875,62.732,-52.925,-999.0,5.5,-999.0,no,yes,no,300234068342660,SVPGHI,AOML,MARIA_S._MERI,North
2020-09-05T22:00:02Z,2020,22,0,249.9167,249.9167,62.74,-52.974,-999.0,5.51,-999.0,no,yes,no,300234068342660,SVPGHI,AOML,MARIA_S._MERI,North
2020-09-05T22:59:57Z,2020,23,0,249.9583,249.9583,62.75,-53.021,-999.0,5.61,-999.0,no,yes,no,300234068342660,SVPGHI,AOML,MARIA_S._MERI,North
2020-09-06T00:00:00Z,2020,0,0,250.0,250.0,62.764,-53.067,-999.0,5.62,-999.0,no,yes,no,300234068342660,SVPGHI,AOML,MARIA_S._MERI,North
2020-09-06T02:00:57Z,2020,2,1,250.084,250.084,62.798,-53.138,-999.0,5.75,-999.0,no,yes,no,300234068342660,SVPGHI,AOML,MARIA_S._MERI,North
2020-09-06T03:00:00Z,2020,3,0,250.125,250.125,62.819,-53.163,-999.0,5.77,-999.0,no,yes,no,300234068342660,SVPGHI,AOML,MARIA_S._MERI,North
2020-09-06T04:00:02Z,2020,4,0,250.1667,250.1667,62.842,-53.183,-999.0,5.76,-999.0,no,yes,no,300234068342660,SVPGHI,AOML,MARIA_S._MERI,North
2020-09-06T04:59:57Z,2020,5,0,250.2083,250.2083,62.867,-53.194,-999.0,5.75,-999.0,no,yes,no,300234068342660,SVPGHI,AOML,MARIA_S._MERI,North
2020-09-06T06:00:00Z,2020,6,0,250.25,250.25,62.892,-53.197,-999.0,5.75,-999.0,no,yes,no,300234068342660,SVPGHI,AOML,MARIA_S._MERI,North
2020-09-06T07:00:02Z,2020,7,0,250.2917,250.2917,62.916,-53.187,-999.0,5.68,-999.0,no,yes,no,300234068342660,SVPGHI,AOML,MARIA_S._MERI,North
2020-09-06T07:59:57Z,2020,8,0,250.3333,250.3333,62.943,-53.177,-999.0,5.63,-999.0,no,yes,no,300234068342660,SVPGHI,AOML,MARIA_S._MERI,North
2020-09-06T09:00:00Z,2020,9,0,250.375,250.375,62.971,-53.172,-999.0,5.63,-999.0,no,yes,no,300234068342660,SVPGHI,AOML,MARIA_S._MERI,North
2020-09-06T10:00:02Z,2020,10,0,250.4167,250.4167,62.999,-53.163,-999.0,5.66,-999.0,no,yes,no,300234068342660,SVPGHI,AOML,MARIA_S._MERI,North
2020-09-06T10:59:57Z,2020,11,0,250.4583,250.4583,63.024,-53.149,-999.0,5.69,-999.0,no,yes,no,300234068342660,SVPGHI,AOML,MARIA_S._MERI,North
2020-09-06T12:00:00Z,2020,12,0,250.5,250.5,63.044,-53.132,-999.0,5.8,-999.0,no,yes,no,300234068342660,SVPGHI,AOML,MARIA_S._MERI,North
2020-09-06T13:00:02Z,2020,13,0,250.5417,250.5417,63.06,-53.109,-999.0,5.92,-999.0,no,yes,no,300234068342660,SVPGHI,AOML,MARIA_S._MERI,North
2020-09-06T13:59:57Z,2020,14,0,250.5833,250.5833,63.07,-53.09,-999.0,6.02,-999.0,no,yes,no,300234068342660,SVPGHI,AOML,MARIA_S._MERI,North
2020-09-06T15:00:00Z,2020,15,0,250.625,250.625,63.077,-53.073,-999.0,5.98,-999.0,no,yes,no,300234068342660,SVPGHI,AOML,MARIA_S._MERI,North
2020-09-06T16:00:02Z,2020,16,0,250.6667,250.6667,63.082,-53.057,-999.0,5.99,-999.0,no,yes,no,300234068342660,SVPGHI,AOML,MARIA_S._MERI,North
2020-09-06T16:59:57Z,2020,17,0,250.7083,250.7083,63.085,-53.044,-999.0,6.09,-999.0,no,yes,no,300234068342660,SVPGHI,AOML,MARIA_S._MERI,North
2020-09-06T18:00:00Z,2020,18,0,250.75,250.75,63.089,-53.032,-999.0,6.03,-999.0,no,yes,no,300234068342660,SVPGHI,AOML,MARIA_S._MERI,North
2020-09-06T19:01:03Z,2020,19,1,250.7924,250.7924,63.092,-53.026,-999.0,5.76,-999.0,no,yes,no,300234068342660,SVPGHI,AOML,MARIA_S._MERI,North
2020-09-06T20:00:57Z,2020,20,1,250.834,250.834,63.091,-53.023,-999.0,5.7,-999.0,no,yes,no,300234068342660,SVPGHI,AOML,MARIA_S._MERI,North
2020-09-06T21:04:01Z,2020,21,4,250.8778,250.8778,-90.0,-180.0,-999.0,5.52,-999.0,no,yes,no,300234068342660,SVPGHI,AOML,MARIA_S._MERI,North
2020-09-06T22:02:03Z,2020,22,2,250.9181,250.9181,63.096,-53.018,-999.0,5.33,-999.0,no,yes,no,300234068342660,SVPGHI,AOML,MARIA_S._MERI,North
2020-09-06T23:00:57Z,2020,23,1,250.959,250.959,63.098,-53.013,-999.0,5.23,-999.0,no,yes,no,300234068342660,SVPGHI,AOML,MARIA_S._MERI,North
2020-09-07T00:00:00Z,2020,0,0,251.0,251.0,63.1,-53.01,-999.0,5.01,-999.0,no,yes,no,300234068342660,SVPGHI,AOML,MARIA_S._MERI,North
2020-09-07T01:00:02Z,2020,1,0,251.0417,251.0417,63.103,-53.002,-999.0,5.01,-999.0,no,yes,no,300234068342660,SVPGHI,AOML,MARIA_S._MERI,North
2020-09-07T02:00:57Z,2020,2,1,251.084,251.084,63.102,-52.99,-999.0,5.02,-999.0,no,yes,no,300234068342660,SVPGHI,AOML,MARIA_S._MERI,North
2020-09-07T03:00:00Z,2020,3,0,251.125,251.125,63.101,-52.974,-999.0,4.94,-999.0,no,yes,no,300234068342660,SVPGHI,AOML,MARIA_S._MERI,North
2020-09-07T04:02:55Z,2020,4,3,251.1687,251.1687,63.098,-52.953,-999.0,5.65,-999.0,no,yes,no,300234068342660,SVPGHI,AOML,MARIA_S._MERI,North
2020-09-07T04:59:57Z,2020,5,0,251.2083,251.2083,63.091,-52.933,-999.0,5.61,-999.0,no,yes,no,300234068342660,SVPGHI,AOML,MARIA_S._MERI,North
2020-09-07T06:04:01Z,2020,6,4,251.2528,251.2528,63.082,-52.904,-999.0,5.62,-999.0,no,yes,no,300234068342660,SVPGHI,AOML,MARIA_S._MERI,North
2020-09-07T07:00:02Z,2020,7,0,251.2917,251.2917,63.075,-52.88,-999.0,5.68,-999.0,no,yes,no,300234068342660,SVPGHI,AOML,MARIA_S._MERI,North
2020-09-07T07:59:57Z,2020,8,0,251.3333,251.3333,63.071,-52.856,-999.0,5.75,-999.0,no,yes,no,300234068342660,SVPGHI,AOML,MARIA_S._MERI,North
2020-09-07T09:01:00Z,2020,9,1,251.3757,251.3757,63.07,-52.83,-999.0,5.71,-999.0,no,yes,no,300234068342660,SVPGHI,AOML,MARIA_S._MERI,North
2020-09-07T10:02:03Z,2020,10,2,251.4181,251.4181,63.07,-52.8,-999.0,5.64,-999.0,no,yes,no,300234068342660,SVPGHI,AOML,MARIA_S._MERI,North
2020-09-07T12:00:00Z,2020,12,0,251.5,251.5,63.062,-52.719,-999.0,5.6,-999.0,no,yes,no,300234068342660,SVPGHI,AOML,MARIA_S._MERI,North
2020-09-07T13:00:02Z,2020,13,0,251.5417,251.5417,63.047,-52.693,-999.0,5.62,-999.0,no,yes,no,300234068342660,SVPGHI,AOML,MARIA_S._MERI,North
2020-09-07T13:59:57Z,2020,14,0,251.5833,251.5833,63.036,-52.667,-999.0,5.64,-999.0,no,yes,no,300234068342660,SVPGHI,AOML,MARIA_S._MERI,North
2020-09-07T15:00:00Z,2020,15,0,251.625,251.625,63.025,-52.649,-999.0,5.63,-999.0,no,yes,no,300234068342660,SVPGHI,AOML,MARIA_S._MERI,North
2020-09-07T16:00:02Z,2020,16,0,251.6667,251.6667,63.012,-52.631,-999.0,5.58,-999.0,no,yes,no,300234068342660,SVPGHI,AOML,MARIA_S._MERI,North
2020-09-07T17:00:57Z,2020,17,1,251.709,251.709,63.001,-52.621,-999.0,5.6,-999.0,no,yes,no,300234068342660,SVPGHI,AOML,MARIA_S._MERI,North
2020-09-07T18:00:00Z,2020,18,0,251.75,251.75,62.995,-52.611,-999.0,5.59,-999.0,no,yes,no,300234068342660,SVPGHI,AOML,MARIA_S._MERI,North
2020-09-07T19:01:03Z,2020,19,1,251.7924,251.7924,62.991,-52.602,-999.0,5.6,-999.0,no,yes,no,300234068342660,SVPGHI,AOML,MARIA_S._MERI,North
2020-09-07T19:59:57Z,2020,20,0,251.8333,251.8333,62.985,-52.594,-999.0,5.62,-999.0,no,yes,no,300234068342660,SVPGHI,AOML,MARIA_S._MERI,North
2020-09-07T21:00:00Z,2020,21,0,251.875,251.875,62.985,-52.588,-999.0,5.63,-999.0,no,yes,no,300234068342660,SVPGHI,AOML,MARIA_S._MERI,North
2020-09-07T22:00:02Z,2020,22,0,251.9167,251.9167,62.984,-52.578,-999.0,5.61,-999.0,no,yes,no,300234068342660,SVPGHI,AOML,MARIA_S._MERI,North
2020-09-07T22:59:57Z,2020,23,0,251.9583,251.9583,62.981,-52.567,-999.0,5.6,-999.0,no,yes,no,300234068342660,SVPGHI,AOML,MARIA_S._MERI,North
2020-09-08T00:00:00Z,2020,0,0,252.0,252.0,62.978,-52.56,-999.0,5.6,-999.0,no,yes,no,300234068342660,SVPGHI,AOML,MARIA_S._MERI,North
2020-09-08T01:00:02Z,2020,1,0,252.0417,252.0417,62.973,-52.553,-999.0,5.59,-999.0,no,yes,no,300234068342660,SVPGHI,AOML,MARIA_S._MERI,North
2020-09-08T01:59:57Z,2020,2,0,252.0833,252.0833,62.966,-52.557,-999.0,5.56,-999.0,no,yes,no,300234068342660,SVPGHI,AOML,MARIA_S._MERI,North
2020-09-08T03:00:00Z,2020,3,0,252.125,252.125,62.957,-52.563,-999.0,5.53,-999.0,no,yes,no,300234068342660,SVPGHI,AOML,MARIA_S._MERI,North
2020-09-08T04:00:02Z,2020,4,0,252.1667,252.1667,62.949,-52.576,-999.0,5.5,-999.0,no,yes,no,300234068342660,SVPGHI,AOML,MARIA_S._MERI,North
2020-09-08T07:00:02Z,2020,7,0,252.2917,252.2917,62.931,-52.641,-999.0,5.46,-999.0,no,yes,no,300234068342660,SVPGHI,AOML,MARIA_S._MERI,North
2020-09-08T07:59:57Z,2020,8,0,252.3333,252.3333,62.924,-52.667,-999.0,5.43,-999.0,no,yes,no,300234068342660,SVPGHI,AOML,MARIA_S._MERI,North
2020-09-08T09:00:00Z,2020,9,0,252.375,252.375,62.917,-52.692,-999.0,5.35,-999.0,no,yes,no,300234068342660,SVPGHI,AOML,MARIA_S._MERI,North
2020-09-08T10:01:03Z,2020,10,1,252.4174,252.4174,62.91,-52.719,-999.0,5.22,-999.0,no,yes,no,300234068342660,SVPGHI,AOML,MARIA_S._MERI,North
2020-09-08T10:59:57Z,2020,11,0,252.4583,252.4583,62.908,-52.75,-999.0,5.2,-999.0,no,yes,no,300234068342660,SVPGHI,AOML,MARIA_S._MERI,North
2020-09-08T12:00:00Z,2020,12,0,252.5,252.5,62.899,-52.788,-999.0,4.8,-999.0,no,yes,no,300234068342660,SVPGHI,AOML,MARIA_S._MERI,North
2020-09-08T13:00:02Z,2020,13,0,252.5417,252.5417,62.89,-52.827,-999.0,4.75,-999.0,no,yes,no,300234068342660,SVPGHI,AOML,MARIA_S._MERI,North
2020-09-08T13:59:57Z,2020,14,0,252.5833,252.5833,62.883,-52.867,-999.0,4.74,-999.0,no,yes,no,300234068342660,SVPGHI,AOML,MARIA_S._MERI,North
2020-09-08T15:00:00Z,2020,15,0,252.625,252.625,62.876,-52.909,-999.0,4.74,-999.0,no,yes,no,300234068342660,SVPGHI,AOML,MARIA_S._MERI,North
2020-09-08T16:00:02Z,2020,16,0,252.6667,252.6667,62.868,-52.952,-999.0,4.71,-999.0,no,yes,no,300234068342660,SVPGHI,AOML,MARIA_S._MERI,North
2020-09-08T16:59:57Z,2020,17,0,252.7083,252.7083,62.859,-52.992,-999.0,4.62,-999.0,no,yes,no,300234068342660,SVPGHI,AOML,MARIA_S._MERI,North
2020-09-08T18:00:00Z,2020,18,0,252.75,252.75,62.848,-53.034,-999.0,4.61,-999.0,no,yes,no,300234068342660,SVPGHI,AOML,MARIA_S._MERI,North
2020-09-08T19:59:57Z,2020,20,0,252.8333,252.8333,62.835,-53.135,-999.0,4.25,-999.0,no,yes,no,300234068342660,SVPGHI,AOML,MARIA_S._MERI,North
2020-09-08T21:03:01Z,2020,21,3,252.8771,252.8771,62.832,-53.192,-999.0,4.13,-999.0,no,yes,no,300234068342660,SVPGHI,AOML,MARIA_S._MERI,North
2020-09-08T22:02:03Z,2020,22,2,252.9181,252.9181,62.829,-53.249,-999.0,4.19,-999.0,no,yes,no,300234068342660,SVPGHI,AOML,MARIA_S._MERI,North
2020-09-08T23:01:58Z,2020,23,2,252.9597,252.9597,62.833,-53.303,-999.0,4.19,-999.0,no,yes,no,300234068342660,SVPGHI,AOML,MARIA_S._MERI,North
2020-09-09T00:00:00Z,2020,0,0,253.0,253.0,62.839,-53.357,-999.0,4.18,-999.0,no,yes,no,300234068342660,SVPGHI,AOML,MARIA_S._MERI,North
2020-09-09T01:03:56Z,2020,1,4,253.0444,253.0444,-90.0,-180.0,-999.0,4.16,-999.0,no,yes,no,300234068342660,SVPGHI,AOML,MARIA_S._MERI,North
2020-09-09T02:02:58Z,2020,2,3,253.0854,253.0854,62.86,-53.46,-999.0,4.12,-999.0,no,yes,no,300234068342660,SVPGHI,AOML,MARIA_S._MERI,North
2020-09-09T03:00:00Z,2020,3,0,253.125,253.125,62.871,-53.5,-999.0,4.06,-999.0,no,yes,no,300234068342660,SVPGHI,AOML,MARIA_S._MERI,North
2020-09-09T04:00:02Z,2020,4,0,253.1667,253.1667,62.885,-53.54,-999.0,4.05,-999.0,no,yes,no,300234068342660,SVPGHI,AOML,MARIA_S._MERI,North
2020-09-09T04:59:57Z,2020,5,0,253.2083,253.2083,62.9,-53.575,-999.0,4.02,-999.0,no,yes,no,300234068342660,SVPGHI,AOML,MARIA_S._MERI,North
2020-09-09T06:00:00Z,2020,6,0,253.25,253.25,62.916,-53.599,-999.0,4.01,-999.0,no,yes,no,300234068342660,SVPGHI,AOML,MARIA_S._MERI,North
2020-09-09T07:00:02Z,2020,7,0,253.2917,253.2917,62.934,-53.614,-999.0,4.01,-999.0,no,yes,no,300234068342660,SVPGHI,AOML,MARIA_S._MERI,North
2020-09-09T07:59:57Z,2020,8,0,253.3333,253.3333,62.955,-53.621,-999.0,4.02,-999.0,no,yes,no,300234068342660,SVPGHI,AOML,MARIA_S._MERI,North
2020-09-09T09:00:00Z,2020,9,0,253.375,253.375,62.976,-53.621,-999.0,4.02,-999.0,no,yes,no,300234068342660,SVPGHI,AOML,MARIA_S._MERI,North
2020-09-09T10:03:56Z,2020,10,4,253.4194,253.4194,62.997,-53.626,-999.0,4.06,-999.0,no,yes,no,300234068342660,SVPGHI,AOML,MARIA_S._MERI,North
2020-09-09T10:59:57Z,2020,11,0,253.4583,253.4583,63.012,-53.622,-999.0,4.04,-999.0,no,yes,no,300234068342660,SVPGHI,AOML,MARIA_S._MERI,North
2020-09-09T12:00:00Z,2020,12,0,253.5,253.5,63.025,-53.62,-999.0,4.03,-999.0,no,yes,no,300234068342660,SVPGHI,AOML,MARIA_S._MERI,North
2020-09-09T13:00:02Z,2020,13,0,253.5417,253.5417,63.036,-53.615,-999.0,4.05,-999.0,no,yes,no,300234068342660,SVPGHI,AOML,MARIA_S._MERI,North
2020-09-09T14:00:57Z,2020,14,1,253.584,253.584,63.048,-53.614,-999.0,4.01,-999.0,no,yes,no,300234068342660,SVPGHI,AOML,MARIA_S._MERI,North
2020-09-09T15:00:00Z,2020,15,0,253.625,253.625,63.061,-53.607,-999.0,3.81,-999.0,no,yes,no,300234068342660,SVPGHI,AOML,MARIA_S._MERI,North
2020-09-09T16:01:03Z,2020,16,1,253.6674,253.6674,63.072,-53.595,-999.0,3.73,-999.0,no,yes,no,300234068342660,SVPGHI,AOML,MARIA_S._MERI,North
2020-09-09T16:59:57Z,2020,17,0,253.7083,253.7083,63.082,-53.58,-999.0,3.72,-999.0,no,yes,no,300234068342660,SVPGHI,AOML,MARIA_S._MERI,North
2020-09-09T18:01:00Z,2020,18,1,253.7507,253.7507,63.091,-53.568,-999.0,3.71,-999.0,no,yes,no,300234068342660,SVPGHI,AOML,MARIA_S._MERI,North
2020-09-09T19:00:02Z,2020,19,0,253.7917,253.7917,63.097,-53.555,-999.0,3.72,-999.0,no,yes,no,300234068342660,SVPGHI,AOML,MARIA_S._MERI,North
2020-09-09T20:02:58Z,2020,20,3,253.8354,253.8354,63.102,-53.539,-999.0,3.71,-999.0,no,yes,no,300234068342660,SVPGHI,AOML,MARIA_S._MERI,North
2020-09-09T22:00:02Z,2020,22,0,253.9167,253.9167,63.121,-53.509,-999.0,3.74,-999.0,no,yes,no,300234068342660,SVPGHI,AOML,MARIA_S._MERI,North
2020-09-09T22:59:57Z,2020,23,0,253.9583,253.9583,63.134,-53.488,-999.0,3.75,-999.0,no,yes,no,300234068342660,SVPGHI,AOML,MARIA_S._MERI,North
2020-09-10T00:00:00Z,2020,0,0,254.0,254.0,63.148,-53.456,-999.0,3.8,-999.0,no,yes,no,300234068342660,SVPGHI,AOML,MARIA_S._MERI,North
2020-09-10T01:03:56Z,2020,1,4,254.0444,254.0444,-90.0,-180.0,-999.0,3.78,-999.0,no,yes,no,300234068342660,SVPGHI,AOML,MARIA_S._MERI,North
2020-09-10T02:03:59Z,2020,2,4,254.0861,254.0861,-90.0,-180.0,-999.0,3.77,-999.0,no,yes,no,300234068342660,SVPGHI,AOML,MARIA_S._MERI,North
2020-09-10T03:01:00Z,2020,3,1,254.1257,254.1257,63.187,-53.301,-999.0,3.8,-999.0,no,yes,no,300234068342660,SVPGHI,AOML,MARIA_S._MERI,North
2020-09-10T04:00:02Z,2020,4,0,254.1667,254.1667,63.193,-53.254,-999.0,3.83,-999.0,no,yes,no,300234068342660,SVPGHI,AOML,MARIA_S._MERI,North
2020-09-10T04:59:57Z,2020,5,0,254.2083,254.2083,63.198,-53.213,-999.0,3.84,-999.0,no,yes,no,300234068342660,SVPGHI,AOML,MARIA_S._MERI,North
2020-09-10T06:01:00Z,2020,6,1,254.2507,254.2507,63.201,-53.176,-999.0,3.84,-999.0,no,yes,no,300234068342660,SVPGHI,AOML,MARIA_S._MERI,North
2020-09-10T07:00:02Z,2020,7,0,254.2917,254.2917,63.204,-53.157,-999.0,3.84,-999.0,no,yes,no,300234068342660,SVPGHI,AOML,MARIA_S._MERI,North
2020-09-10T07:59:57Z,2020,8,0,254.3333,254.3333,63.209,-53.145,-999.0,3.84,-999.0,no,yes,no,300234068342660,SVPGHI,AOML,MARIA_S._MERI,North
2020-09-10T09:01:00Z,2020,9,1,254.3757,254.3757,63.215,-53.142,-999.0,3.83,-999.0,no,yes,no,300234068342660,SVPGHI,AOML,MARIA_S._MERI,North
2020-09-10T10:03:56Z,2020,10,4,254.4194,254.4194,63.225,-53.141,-999.0,3.85,-999.0,no,yes,no,300234068342660,SVPGHI,AOML,MARIA_S._MERI,North
2020-09-10T11:00:57Z,2020,11,1,254.459,254.459,63.235,-53.144,-999.0,3.96,-999.0,no,yes,no,300234068342660,SVPGHI,AOML,MARIA_S._MERI,North
2020-09-10T12:00:00Z,2020,12,0,254.5,254.5,63.249,-53.148,-999.0,4.38,-999.0,no,yes,no,300234068342660,SVPGHI,AOML,MARIA_S._MERI,North
2020-09-10T13:01:03Z,2020,13,1,254.5424,254.5424,63.263,-53.15,-999.0,5.11,-999.0,no,yes,no,300234068342660,SVPGHI,AOML,MARIA_S._MERI,North
2020-09-10T13:59:57Z,2020,14,0,254.5833,254.5833,63.276,-53.147,-999.0,5.14,-999.0,no,yes,no,300234068342660,SVPGHI,AOML,MARIA_S._MERI,North
2020-09-10T15:00:00Z,2020,15,0,254.625,254.625,63.282,-53.153,-999.0,5.18,-999.0,no,yes,no,300234068342660,SVPGHI,AOML,MARIA_S._MERI,North
2020-09-10T16:00:02Z,2020,16,0,254.6667,254.6667,63.289,-53.16,-999.0,5.43,-999.0,no,yes,no,300234068342660,SVPGHI,AOML,MARIA_S._MERI,North
2020-09-10T16:59:57Z,2020,17,0,254.7083,254.7083,63.295,-53.178,-999.0,5.45,-999.0,no,yes,no,300234068342660,SVPGHI,AOML,MARIA_S._MERI,North
2020-09-10T18:01:00Z,2020,18,1,254.7507,254.7507,63.297,-53.195,-999.0,5.59,-999.0,no,yes,no,300234068342660,SVPGHI,AOML,MARIA_S._MERI,North
2020-09-10T19:00:02Z,2020,19,0,254.7917,254.7917,63.3,-53.227,-999.0,5.74,-999.0,no,yes,no,300234068342660,SVPGHI,AOML,MARIA_S._MERI,North
2020-09-10T20:00:57Z,2020,20,1,254.834,254.834,63.304,-53.255,-999.0,5.79,-999.0,no,yes,no,300234068342660,SVPGHI,AOML,MARIA_S._MERI,North
2020-09-10T21:00:00Z,2020,21,0,254.875,254.875,63.307,-53.284,-999.0,5.69,-999.0,no,yes,no,300234068342660,SVPGHI,AOML,MARIA_S._MERI,North
2020-09-10T22:00:02Z,2020,22,0,254.9167,254.9167,63.312,-53.312,-999.0,5.6,-999.0,no,yes,no,300234068342660,SVPGHI,AOML,MARIA_S._MERI,North
2020-09-10T22:59:57Z,2020,23,0,254.9583,254.9583,63.312,-53.342,-999.0,5.56,-999.0,no,yes,no,300234068342660,SVPGHI,AOML,MARIA_S._MERI,North
2020-09-11T01:03:56Z,2020,1,4,255.0444,255.0444,-90.0,-180.0,-999.0,5.5,-999.0,no,yes,no,300234068342660,SVPGHI,AOML,MARIA_S._MERI,North
2020-09-11T02:00:57Z,2020,2,1,255.084,255.084,63.323,-53.412,-999.0,5.48,-999.0,no,yes,no,300234068342660,SVPGHI,AOML,MARIA_S._MERI,North
2020-09-11T03:00:00Z,2020,3,0,255.125,255.125,63.327,-53.425,-999.0,5.48,-999.0,no,yes,no,300234068342660,SVPGHI,AOML,MARIA_S._MERI,North
2020-09-11T04:00:02Z,2020,4,0,255.1667,255.1667,63.329,-53.435,-999.0,5.49,-999.0,no,yes,no,300234068342660,SVPGHI,AOML,MARIA_S._MERI,North
2020-09-11T04:59:57Z,2020,5,0,255.2083,255.2083,63.331,-53.444,-999.0,5.49,-999.0,no,yes,no,300234068342660,SVPGHI,AOML,MARIA_S._MERI,North
2020-09-11T06:01:00Z,2020,6,1,255.2507,255.2507,63.331,-53.451,-999.0,5.47,-999.0,no,yes,no,300234068342660,SVPGHI,AOML,MARIA_S._MERI,North
2020-09-11T07:02:03Z,2020,7,2,255.2931,255.2931,63.332,-53.464,-999.0,5.46,-999.0,no,yes,no,300234068342660,SVPGHI,AOML,MARIA_S._MERI,North
2020-09-11T07:59:57Z,2020,8,0,255.3333,255.3333,63.331,-53.477,-999.0,5.43,-999.0,no,yes,no,300234068342660,SVPGHI,AOML,MARIA_S._MERI,North
2020-09-11T09:00:00Z,2020,9,0,255.375,255.375,63.333,-53.489,-999.0,5.42,-999.0,no,yes,no,300234068342660,SVPGHI,AOML,MARIA_S._MERI,North
2020-09-11T10:59:57Z,2020,11,0,255.4583,255.4583,63.343,-53.504,-999.0,5.43,-999.0,no,yes,no,300234068342660,SVPGHI,AOML,MARIA_S._MERI,North
2020-09-11T12:00:00Z,2020,12,0,255.5,255.5,63.348,-53.508,-999.0,5.45,-999.0,no,yes,no,300234068342660,SVPGHI,AOML,MARIA_S._MERI,North
2020-09-11T13:00:02Z,2020,13,0,255.5417,255.5417,63.354,-53.513,-999.0,5.49,-999.0,no,yes,no,300234068342660,SVPGHI,AOML,MARIA_S._MERI,North
2020-09-11T14:00:57Z,2020,14,1,255.584,255.584,63.359,-53.518,-999.0,5.55,-999.0,no,yes,no,300234068342660,SVPGHI,AOML,MARIA_S._MERI,North
2020-09-11T15:00:00Z,2020,15,0,255.625,255.625,63.363,-53.517,-999.0,5.55,-999.0,no,yes,no,300234068342660,SVPGHI,AOML,MARIA_S._MERI,North
2020-09-11T16:00:02Z,2020,16,0,255.6667,255.6667,63.367,-53.519,-999.0,5.58,-999.0,no,yes,no,300234068342660,SVPGHI,AOML,MARIA_S._MERI,North
2020-09-11T17:02:58Z,2020,17,3,255.7104,255.7104,63.373,-53.519,-999.0,5.6,-999.0,no,yes,no,300234068342660,SVPGHI,AOML,MARIA_S._MERI,North
2020-09-11T18:00:00Z,2020,18,0,255.75,255.75,63.379,-53.52,-999.0,5.6,-999.0,no,yes,no,300234068342660,SVPGHI,AOML,MARIA_S._MERI,North
2020-09-11T19:00:02Z,2020,19,0,255.7917,255.7917,63.383,-53.521,-999.0,5.61,-999.0,no,yes,no,300234068342660,SVPGHI,AOML,MARIA_S._MERI,North
2020-09-11T19:59:57Z,2020,20,0,255.8333,255.8333,63.387,-53.515,-999.0,5.6,-999.0,no,yes,no,300234068342660,SVPGHI,AOML,MARIA_S._MERI,North
2020-09-11T21:00:00Z,2020,21,0,255.875,255.875,63.391,-53.52,-999.0,5.55,-999.0,no,yes,no,300234068342660,SVPGHI,AOML,MARIA_S._MERI,North
2020-09-11T22:00:02Z,2020,22,0,255.9167,255.9167,63.393,-53.519,-999.0,5.54,-999.0,no,yes,no,300234068342660,SVPGHI,AOML,MARIA_S._MERI,North
2020-09-11T22:59:57Z,2020,23,0,255.9583,255.9583,63.396,-53.523,-999.0,5.4,-999.0,no,yes,no,300234068342660,SVPGHI,AOML,MARIA_S._MERI,North
2020-09-12T00:00:00Z,2020,0,0,256.0,256.0,63.401,-53.529,-999.0,5.41,-999.0,no,yes,no,300234068342660,SVPGHI,AOML,MARIA_S._MERI,North
2020-09-12T01:00:02Z,2020,1,0,256.0417,256.0417,63.405,-53.537,-999.0,5.41,-999.0,no,yes,no,300234068342660,SVPGHI,AOML,MARIA_S._MERI,North
2020-09-12T01:59:57Z,2020,2,0,256.0833,256.0833,63.412,-53.549,-999.0,5.39,-999.0,no,yes,no,300234068342660,SVPGHI,AOML,MARIA_S._MERI,North
2020-09-12T03:00:00Z,2020,3,0,256.125,256.125,63.418,-53.56,-999.0,5.38,-999.0,no,yes,no,300234068342660,SVPGHI,AOML,MARIA_S._MERI,North
2020-09-12T04:01:03Z,2020,4,1,256.1674,256.1674,63.424,-53.565,-999.0,5.53,-999.0,no,yes,no,300234068342660,SVPGHI,AOML,MARIA_S._MERI,North
2020-09-12T04:59:57Z,2020,5,0,256.2083,256.2083,63.428,-53.576,-999.0,5.53,-999.0,no,yes,no,300234068342660,SVPGHI,AOML,MARIA_S._MERI,North
2020-09-12T06:00:00Z,2020,6,0,256.25,256.25,63.433,-53.588,-999.0,5.5,-999.0,no,yes,no,300234068342660,SVPGHI,AOML,MARIA_S._MERI,North
2020-09-12T07:02:03Z,2020,7,2,256.2931,256.2931,63.44,-53.594,-999.0,5.5,-999.0,no,yes,no,300234068342660,SVPGHI,AOML,MARIA_S._MERI,North
2020-09-12T07:59:57Z,2020,8,0,256.3333,256.3333,63.446,-53.6,-999.0,5.49,-999.0,no,yes,no,300234068342660,SVPGHI,AOML,MARIA_S._MERI,North
2020-09-12T09:00:00Z,2020,9,0,256.375,256.375,63.451,-53.607,-999.0,5.47,-999.0,no,yes,no,300234068342660,SVPGHI,AOML,MARIA_S._MERI,North
2020-09-12T10:00:02Z,2020,10,0,256.4167,256.4167,63.454,-53.608,-999.0,5.49,-999.0,no,yes,no,300234068342660,SVPGHI,AOML,MARIA_S._MERI,North
2020-09-12T10:59:57Z,2020,11,0,256.4583,256.4583,63.452,-53.61,-999.0,5.5,-999.0,no,yes,no,300234068342660,SVPGHI,AOML,MARIA_S._MERI,North
2020-09-12T12:00:00Z,2020,12,0,256.5,256.5,63.453,-53.613,-999.0,5.51,-999.0,no,yes,no,300234068342660,SVPGHI,AOML,MARIA_S._MERI,North
2020-09-12T13:00:02Z,2020,13,0,256.5417,256.5417,63.456,-53.623,-999.0,5.54,-999.0,no,yes,no,300234068342660,SVPGHI,AOML,MARIA_S._MERI,North
2020-09-12T13:59:57Z,2020,14,0,256.5833,256.5833,63.458,-53.631,-999.0,5.58,-999.0,no,yes,no,300234068342660,SVPGHI,AOML,MARIA_S._MERI,North
2020-09-12T15:00:00Z,2020,15,0,256.625,256.625,63.46,-53.643,-999.0,5.6,-999.0,no,yes,no,300234068342660,SVPGHI,AOML,MARIA_S._MERI,North
2020-09-12T16:00:02Z,2020,16,0,256.6667,256.6667,63.464,-53.655,-999.0,5.66,-999.0,no,yes,no,300234068342660,SVPGHI,AOML,MARIA_S._MERI,North
2020-09-12T16:59:57Z,2020,17,0,256.7083,256.7083,63.471,-53.668,-999.0,5.68,-999.0,no,yes,no,300234068342660,SVPGHI,AOML,MARIA_S._MERI,North
2020-09-12T18:00:00Z,2020,18,0,256.75,256.75,63.475,-53.674,-999.0,5.7,-999.0,no,yes,no,300234068342660,SVPGHI,AOML,MARIA_S._MERI,North
2020-09-12T19:01:03Z,2020,19,1,256.7924,256.7924,63.481,-53.682,-999.0,5.7,-999.0,no,yes,no,300234068342660,SVPGHI,AOML,MARIA_S._MERI,North
2020-09-12T19:59:57Z,2020,20,0,256.8333,256.8333,63.483,-53.682,-999.0,5.7,-999.0,no,yes,no,300234068342660,SVPGHI,AOML,MARIA_S._MERI,North
2020-09-12T21:00:00Z,2020,21,0,256.875,256.875,63.485,-53.676,-999.0,5.69,-999.0,no,yes,no,300234068342660,SVPGHI,AOML,MARIA_S._MERI,North
2020-09-12T22:00:02Z,2020,22,0,256.9167,256.9167,63.486,-53.672,-999.0,5.68,-999.0,no,yes,no,300234068342660,SVPGHI,AOML,MARIA_S._MERI,North
2020-09-12T22:59:57Z,2020,23,0,256.9583,256.9583,63.483,-53.667,-999.0,5.67,-999.0,no,yes,no,300234068342660,SVPGHI,AOML,MARIA_S._MERI,North
2020-09-13T00:01:00Z,2020,0,1,257.0007,257.0007,63.483,-53.669,-999.0,5.65,-999.0,no,yes,no,300234068342660,SVPGHI,AOML,MARIA_S._MERI,North
2020-09-13T01:01:03Z,2020,1,1,257.0424,257.0424,63.481,-53.664,-999.0,5.63,-999.0,no,yes,no,300234068342660,SVPGHI,AOML,MARIA_S._MERI,North
2020-09-13T01:59:57Z,2020,2,0,257.0833,257.0833,63.478,-53.675,-999.0,5.62,-999.0,no,yes,no,300234068342660,SVPGHI,AOML,MARIA_S._MERI,North
2020-09-13T03:00:00Z,2020,3,0,257.125,257.125,63.479,-53.683,-999.0,5.61,-999.0,no,yes,no,300234068342660,SVPGHI,AOML,MARIA_S._MERI,North
2020-09-13T04:00:02Z,2020,4,0,257.1667,257.1667,63.482,-53.689,-999.0,5.57,-999.0,no,yes,no,300234068342660,SVPGHI,AOML,MARIA_S._MERI,North